SL-16 DEB, 22382

Orbit data source: Space-Track

SL-16 DEB, 22382 is space debris in LEO originally from a launch on Fri, 25 Dec 1992 UTC launched from the Tyuratam Missile And Space Complex (TTMTR). Debris objects in space refer to the collection of defunct objects orbiting the Earth. Examples of debris include non-operational satellites, rocket bodies, and fragments generated from explosions, collisions, or faulty payload assembly.

Loading next visibility...
Identifier
22382, 1992-093BX
Orbit
LEO
Country
Flag of CISCIS
Related business
Manufacturer
Unknown
Mission
Spacecraft
Bus & Motor
Unknown
Mass
Unknown
Launch date (UTC)
1992-12-25 (33 years ago)
Launch vehicle
Unknown
Launch site
Tyuratam Missile And Space Complex (TTMTR)
Object type
Payload
Rocket body
Debris
Shape & HBR
Unknown shape, 0.1 m
Radar Cross Section
Small (<0.1 m²)

Expand to show TLE details & history
Last TLE update: 1 day ago

TLE from 1 day ago
0 SL-16 DEB
1 22382U 92093BX  26036.43036559  .00000665  00000-0  50719-3 0  9994
2 22382  70.8664  39.7826 0154271  97.8775  50.4088 13.91692221671171
Epoch: 2026-02-05T10:19Z
TLE epoch observation values (Epoch: 2026-02-05T10:19:43.586Z)
Latitude
28.55445°
Longitude
-81.55619°
Altitude
854.945 km
Speed
7.464 km/s
True Right ascension
13h 55m 49s
True Declination
28° 24' 44"
Sunlit
Object was in daylight at epoch
Visualization orbit readout
Latitude
Unknown
Longitude
Unknown
Altitude
Unknown
Speed
Unknown
Apparent Right ascension
Unknown
Apparent Declination
Unknown
Sunlit
N/A
Visualization observer readout
Local Sidereal Time
13:55:13
Azimuth
Unknown
Elevation
Unknown
Doppler factor
Unknown
Orbital elements
Apogee altitude
1,033.266 km
Perigee altitude
808.067 km
Semi-major axis
7,298.804 km
Eccentricity
0.01543
Inclination
70.8664°
RAAN
39.7826°
Arg. of periapsis
97.8775°
True anomaly
51.78791°
Mean anomaly
50.4088°
Eccentric anomaly
51.09666°
Mean motion
3.48069 °/min
Orbital period
103.43 mins
BSTAR
0.00050719
Loading maneuver chart data...
Computing Atmospheric mass density...
Loading historical data...
Loading historical data...
Loading historical data...
Loading historical data...
Loading historical data...
Loading historical data...
Loading historical data...

Documentation

Showing up to 5 results
|